{"data":{"norad_id":69086,"epoch":"2026-09-20T04:58:17.490432Z","epoch_age_seconds":62589,"freshness":"FRESH","line1":"1 69086U 26104P   26263.20714688  .00000062  00000+0  77543-4 0  9994","line2":"2 69086  88.9900 331.7806 0002538 110.7173 249.4250 13.51022936 17984","mean_motion":13.51022936,"eccentricity":0.0002538,"inclination_deg":88.99,"raan_deg":331.7806,"arg_perigee_deg":110.7173,"mean_anomaly_deg":249.425,"bstar":7.7543e-5,"rev_number":1798,"period_min":106.58590329069,"perigee_km":1066.6073484219,"apogee_km":1070.3872599947,"semimajor_km":7446.6343042083,"source":"CELESTRAK","updated_at":"2026-09-20T09:00:24.673247Z"}}